When you browse on this site, cookies collect data to enhance your experience and personalize the content and advertising you see.
Visit our Privacy Policy to learn more. By continuing to use the site, you agree to this use of cookies and data.
  • In Österreich
  • Länderverzeichnis
  • Für 7 Tage
  • Wassertemperatur
  • Wetterkarte
  • News
  • Widgets
  • user-avatar
    Anmelden

    Stündliche Wetter La Rioja

    Heute, 12 Dezember, Donnerstag

    Zeit Temperatur Niederschläge Wind Luftdruck Luftfeuchtigkeit
    00:00 +34°C° 0 mm 3 m/S 709 mmHg 33%
    01:00 +33°C° 0 mm 5 m/S 709 mmHg 35%
    02:00 +32°C° 0 mm 11 m/S 709 mmHg 38%
    03:00 +31°C° 0 mm 8 m/S 710 mmHg 43%
    04:00 +29°C° 0 mm 5 m/S 711 mmHg 48%
    05:00 +28°C° 0 mm 3 m/S 712 mmHg 53%
    06:00 +28°C° 0 mm 3 m/S 713 mmHg 48%
    07:00 +29°C° 0 mm 4 m/S 714 mmHg 44%
    08:00 +29°C° 0 mm 5 m/S 716 mmHg 39%
    09:00 +29°C° 0 mm 5 m/S 716 mmHg 34%
    10:00 +29°C° 0 mm 5 m/S 716 mmHg 29%
    11:00 +29°C° 0 mm 5 m/S 716 mmHg 24%
    12:00 +30°C° 0 mm 5 m/S 715 mmHg 22%
    13:00 +30°C° 0 mm 4 m/S 714 mmHg 21%
    14:00 +30°C° 0 mm 4 m/S 714 mmHg 19%
    15:00 +32°C° 0 mm 4 m/S 713 mmHg 20%
    16:00 +32°C° 0 mm 4 m/S 713 mmHg 20%
    17:00 +32°C° 0 mm 4 m/S 712 mmHg 21%
    18:00 +30°C° 0 mm 3 m/S 713 mmHg 22%
    19:00 +29°C° 0 mm 3 m/S 713 mmHg 23%
    20:00 +28°C° 0 mm 2 m/S 714 mmHg 24%
    21:00 +28°C° 0 mm 2 m/S 714 mmHg 24%
    22:00 +27°C° 0 mm 2 m/S 715 mmHg 25%
    23:00 +26°C° 0 mm 2 m/S 715 mmHg 25%

    Morgen, 13 Dezember, Freitag

    Zeit Temperatur Niederschläge Wind Luftdruck Luftfeuchtigkeit
    00:00 +26°C° 0 mm 2 m/S 714 mmHg 25%
    01:00 +25°C° 0 mm 2 m/S 714 mmHg 26%
    02:00 +24°C° 0 mm 2 m/S 713 mmHg 27%
    03:00 +24°C° 0 mm 2 m/S 713 mmHg 27%
    04:00 +23°C° 0 mm 2 m/S 713 mmHg 28%
    05:00 +23°C° 0 mm 2 m/S 712 mmHg 28%
    06:00 +24°C° 0 mm 2 m/S 712 mmHg 26%
    07:00 +26°C° 0 mm 2 m/S 713 mmHg 25%
    08:00 +27°C° 0 mm 2 m/S 713 mmHg 23%
    09:00 +28°C° 0 mm 2 m/S 712 mmHg 23%
    10:00 +30°C° 0 mm 2 m/S 712 mmHg 23%
    11:00 +31°C° 0 mm 2 m/S 711 mmHg 24%
    12:00 +33°C° 0 mm 3 m/S 711 mmHg 24%
    13:00 +34°C° 0 mm 3 m/S 710 mmHg 24%
    14:00 +36°C° 0 mm 3 m/S 709 mmHg 25%
    15:00 +36°C° 0 mm 4 m/S 709 mmHg 27%
    16:00 +36°C° 0 mm 4 m/S 708 mmHg 29%
    17:00 +37°C° 0 mm 5 m/S 708 mmHg 31%
    18:00 +35°C° 0 mm 4 m/S 708 mmHg 34%
    19:00 +34°C° 0 mm 4 m/S 709 mmHg 38%
    20:00 +33°C° 0 mm 3 m/S 709 mmHg 41%
    21:00 +31°C° 0 mm 3 m/S 710 mmHg 43%
    22:00 +30°C° 0 mm 2 m/S 710 mmHg 44%
    23:00 +29°C° 0 mm 2 m/S 711 mmHg 46%

    übermorgen, 14 Dezember, Samstag

    Zeit Temperatur Niederschläge Wind Luftdruck Luftfeuchtigkeit
    00:00 +29°C° 0 mm 2 m/S 711 mmHg 48%
    01:00 +28°C° 0 mm 2 m/S 711 mmHg 49%
    02:00 +27°C° 0 mm 3 m/S 711 mmHg 51%
    03:00 +27°C° 0 mm 2 m/S 710 mmHg 52%
    04:00 +26°C° 0 mm 2 m/S 710 mmHg 53%
    05:00 +25°C° 0 mm 2 m/S 710 mmHg 54%
    06:00 +26°C° 0 mm 2 m/S 710 mmHg 51%
    07:00 +27°C° 0 mm 3 m/S 711 mmHg 48%
    08:00 +29°C° 0 mm 3 m/S 711 mmHg 46%
    09:00 +30°C° 0 mm 3 m/S 711 mmHg 43%
    10:00 +32°C° 0 mm 4 m/S 710 mmHg 40%
    11:00 +34°C° 0 mm 4 m/S 710 mmHg 38%
    12:00 +35°C° 0 mm 4 m/S 709 mmHg 37%
    13:00 +35°C° 0 mm 4 m/S 709 mmHg 35%
    14:00 +36°C° 0 mm 4 m/S 708 mmHg 34%
    15:00 +37°C° 0 mm 4 m/S 707 mmHg 33%
    16:00 +37°C° 0 mm 3 m/S 707 mmHg 33%
    17:00 +37°C° 0 mm 3 m/S 706 mmHg 32%
    18:00 +36°C° 0.4 mm 3 m/S 707 mmHg 37%
    19:00 +34°C° 0.4 mm 3 m/S 708 mmHg 42%
    20:00 +32°C° 0.4 mm 2 m/S 708 mmHg 47%
    21:00 +31°C° 0.5 mm 2 m/S 709 mmHg 52%
    22:00 +30°C° 0.5 mm 2 m/S 709 mmHg 58%
    23:00 +29°C° 0.5 mm 2 m/S 710 mmHg 64%

    15 Dezember, Sonntag

    Zeit Temperatur Niederschläge Wind Luftdruck Luftfeuchtigkeit
    00:00 +28°C° 0.6 mm 3 m/S 710 mmHg 63%
    01:00 +28°C° 0.6 mm 4 m/S 710 mmHg 63%
    02:00 +27°C° 0.6 mm 5 m/S 711 mmHg 63%
    03:00 +26°C° 0.1 mm 4 m/S 711 mmHg 64%
    04:00 +26°C° 0.1 mm 4 m/S 712 mmHg 65%
    05:00 +25°C° 0.1 mm 4 m/S 712 mmHg 66%
    06:00 +26°C° 0.2 mm 4 m/S 713 mmHg 61%
    07:00 +27°C° 0.2 mm 4 m/S 714 mmHg 57%
    08:00 +27°C° 0.2 mm 4 m/S 715 mmHg 52%
    09:00 +28°C° 0 mm 5 m/S 715 mmHg 47%
    10:00 +30°C° 0 mm 5 m/S 715 mmHg 42%
    11:00 +32°C° 0 mm 5 m/S 715 mmHg 37%
    12:00 +33°C° 0 mm 5 m/S 714 mmHg 33%
    13:00 +33°C° 0 mm 5 m/S 713 mmHg 30%
    14:00 +34°C° 0 mm 4 m/S 713 mmHg 27%
    15:00 +34°C° 0 mm 4 m/S 712 mmHg 26%
    16:00 +34°C° 0 mm 3 m/S 712 mmHg 25%
    17:00 +35°C° 0 mm 3 m/S 711 mmHg 24%
    18:00 +34°C° 0 mm 3 m/S 711 mmHg 26%
    19:00 +32°C° 0 mm 2 m/S 712 mmHg 27%
    20:00 +31°C° 0 mm 1 m/S 712 mmHg 29%
    21:00 +30°C° 0 mm 1 m/S 712 mmHg 30%
    22:00 +29°C° 0 mm 1 m/S 712 mmHg 31%
    23:00 +29°C° 0 mm 1 m/S 712 mmHg 33%

    16 Dezember, Montag

    Zeit Temperatur Niederschläge Wind Luftdruck Luftfeuchtigkeit
    00:00 +28°C° 0 mm 1 m/S 712 mmHg 34%
    01:00 +27°C° 0 mm 1 m/S 712 mmHg 35%
    02:00 +27°C° 0 mm 1 m/S 712 mmHg 36%
    03:00 +26°C° 0 mm 1 m/S 711 mmHg 39%
    04:00 +25°C° 0 mm 1 m/S 711 mmHg 42%
    05:00 +25°C° 0 mm 1 m/S 711 mmHg 45%
    06:00 +26°C° 0 mm 2 m/S 711 mmHg 43%
    07:00 +27°C° 0 mm 2 m/S 712 mmHg 40%
    08:00 +28°C° 0 mm 2 m/S 712 mmHg 38%
    09:00 +30°C° 0 mm 2 m/S 712 mmHg 36%
    10:00 +31°C° 0 mm 2 m/S 711 mmHg 33%
    11:00 +34°C° 0 mm 2 m/S 711 mmHg 31%
    12:00 +35°C° 0 mm 3 m/S 710 mmHg 29%
    13:00 +36°C° 0 mm 4 m/S 709 mmHg 27%
    14:00 +37°C° 0 mm 4 m/S 709 mmHg 25%
    15:00 +36°C° 0 mm 6 m/S 708 mmHg 27%
    16:00 +35°C° 0 mm 7 m/S 708 mmHg 29%
    17:00 +35°C° 0 mm 8 m/S 707 mmHg 30%
    18:00 +34°C° 0 mm 7 m/S 708 mmHg 32%
    19:00 +33°C° 0 mm 6 m/S 708 mmHg 34%
    20:00 +32°C° 0 mm 5 m/S 709 mmHg 35%
    21:00 +30°C° 0 mm 4 m/S 710 mmHg 37%
    22:00 +29°C° 0 mm 3 m/S 710 mmHg 40%
    23:00 +29°C° 0 mm 2 m/S 711 mmHg 42%

    17 Dezember, Dienstag

    Zeit Temperatur Niederschläge Wind Luftdruck Luftfeuchtigkeit
    00:00 +28°C° 0 mm 2 m/S 711 mmHg 43%
    01:00 +27°C° 0 mm 2 m/S 711 mmHg 45%
    02:00 +27°C° 0 mm 2 m/S 711 mmHg 47%
    03:00 +26°C° 0 mm 2 m/S 711 mmHg 48%
    04:00 +25°C° 0 mm 1 m/S 711 mmHg 50%
    05:00 +25°C° 0 mm 1 m/S 711 mmHg 51%
    06:00 +26°C° 0 mm 2 m/S 711 mmHg 49%
    07:00 +27°C° 0 mm 2 m/S 711 mmHg 47%
    08:00 +27°C° 0 mm 3 m/S 712 mmHg 45%
    09:00 +29°C° 0 mm 3 m/S 712 mmHg 42%
    10:00 +30°C° 0 mm 3 m/S 711 mmHg 39%
    11:00 +33°C° 0 mm 3 m/S 711 mmHg 36%
    12:00 +34°C° 0 mm 3 m/S 710 mmHg 33%
    13:00 +35°C° 0 mm 4 m/S 710 mmHg 31%
    14:00 +37°C° 0 mm 4 m/S 709 mmHg 28%
    15:00 +37°C° 0 mm 5 m/S 708 mmHg 28%
    16:00 +37°C° 0 mm 5 m/S 707 mmHg 28%
    17:00 +37°C° 0 mm 5 m/S 707 mmHg 27%
    18:00 +36°C° 0 mm 6 m/S 707 mmHg 32%
    19:00 +34°C° 0 mm 6 m/S 707 mmHg 37%
    20:00 +33°C° 0 mm 6 m/S 707 mmHg 41%
    21:00 +32°C° 0 mm 5 m/S 708 mmHg 43%
    22:00 +30°C° 0 mm 4 m/S 708 mmHg 46%
    23:00 +30°C° 0 mm 3 m/S 708 mmHg 48%
    Mehr zeigen